Regional Weather Roundup
Issued by NWS

Home | Current Version | Previous Version | Graphics & Text | Print | Product List | Glossary On
Versions: 1 2 3 4 5 6 7 8 9 10 11 12 13 14 15 16 17 18 19 20 21 22 23 24 25 26 27 28 29 30 31 32 33 34 35 36 37 38 39 40 41 42 43 44 45 46 47 48 49 50
000
ASUS43 KLSX 242010
RWRMO

WEATHER SUMMARY FOR MISSOURI
NATIONAL WEATHER SERVICE SPRINGFIELD MO
300 PM CDT MON JUL 24 2017

NOTE: "FAIR" INDICATES FEW OR NO CLOUDS BELOW 12,000 FEET WITH NO
       SIGNIFICANT WEATHER AND/OR OBSTRUCTIONS TO VISIBILITY.
       CURRENT SKY AND/OR WEATHER CONDITIONS ARE NOT AVAILABLE FOR
       CHILLICOTHE AND FARMINGTON.

MOZ001>031-035>038-043-044-053-054-242100-
...NORTHERN AND WESTERN MISSOURI...

CITY           SKY/WX    TMP DP  RH WIND       PRES   REMARKS
KANSAS CTY INT SUNNY     87  65  47 N7        30.00F
KANSAS C DTWN  SUNNY     87  66  49 E7        29.97F
LEE`S SUMMIT   SUNNY     86  69  56 E7        30.00F HX  90
ST JOSEPH      SUNNY     87  66  49 SE5       29.99F
CHILLICOTHE      N/A     84  65  52 N6        30.01F
KIRKSVILLE     MOSUNNY   81  62  52 E5        30.02S

$$
MOZ066>068-077>081-088>096-101>105-242100-
...SOUTHWEST MISSOURI...

CITY           SKY/WX    TMP DP  RH WIND       PRES   REMARKS
SPRINGFIELD    SUNNY     93  71  48 W8        29.97F HX 100
JOPLIN         MOSUNNY   95  72  47 NE3       29.98F HX 103
BRANSON        MOSUNNY   91  66  43 SW5       30.00F HX  94

$$
MOZ032>034-039>042-045>050-055>058-069>072-242100-
...CENTRAL MISSOURI...

CITY           SKY/WX    TMP DP  RH WIND       PRES   REMARKS
COLUMBIA       SUNNY     86  67  52 N8        30.00R
JEFFERSON CITY MOSUNNY   87  71  58 SE6       29.97S HX  93
ROLLA          MOSUNNY   89  66  46 VRB5      29.98S HX  91
SEDALIA        SUNNY     87  70  56 VRB3      30.01S HX  92
WHITEMAN AFB   MOSUNNY   86  67  54 N6        29.99S
WARRENSBURG    SUNNY     84  64  51 CALM      30.00S
OSAGE BEACH    MOSUNNY   90  67  46 NE7       29.98F HX  93

$$
MOZ051-052-059>065-242100-
...EAST CENTRAL MISSOURI...

CITY           SKY/WX    TMP DP  RH WIND       PRES   REMARKS
ST LOUIS INTL  MOSUNNY   91  66  43 NW9       29.97F HX  93
SPIRIT OF STL  MOSUNNY   90  65  43 VRB3      29.95F HX  92
ST CHARLES     PTSUNNY   88  65  46 VRB6      29.97S HX  90

$$
MOZ072>076-082>087-097>100-106>115-242100-
...SOUTH CENTRAL AND SOUTHEAST MISSOURI...

CITY           SKY/WX    TMP DP  RH WIND       PRES   REMARKS
CAPE GIRARDEAU SUNNY     92  70  48 SW7       29.92F HX  97
FARMINGTON     MOSUNNY   91  70  49 NE8       29.97F HX  96
POPLAR BLUFF   SUNNY     91  75  59 SW7       29.93F HX 101
WEST PLAINS    CLOUDY    92  67  43 S5        29.99S HX  95

$$



USA.gov is the U.S. government's official web portal to all federal, state and local government web resources and services.